When you browse on this site, cookies collect data to enhance your experience and personalize the content and advertising you see.
Visit our Privacy Policy to learn more. By continuing to use the site, you agree to this use of cookies and data.
  • In Denmark
  • List of Countries
  • For 7 days
  • Water Temperature
  • Satellite Maps
  • Weather Map
  • Weather Widgets
  • user-avatar
    Login

    Hourly Weather Crete

    Today, 26 March, Tuesday

    Time Temperature Precipitation Wind Pressure Humidity
    00:00 +7°C° 0 mm 3 mps 704 mmHg 62%
    01:00 +7°C° 0 mm 2 mps 704 mmHg 59%
    02:00 +7°C° 0 mm 2 mps 703 mmHg 56%
    03:00 +7°C° 0 mm 2 mps 703 mmHg 57%
    04:00 +8°C° 0 mm 1 mps 703 mmHg 59%
    05:00 +8°C° 0 mm 1 mps 703 mmHg 60%
    06:00 +9°C° 0 mm 1 mps 704 mmHg 60%
    07:00 +11°C° 0 mm 1 mps 704 mmHg 60%
    08:00 +13°C° 0 mm 1 mps 705 mmHg 59%
    09:00 +14°C° 0 mm 2 mps 705 mmHg 55%
    10:00 +15°C° 0 mm 2 mps 705 mmHg 51%
    11:00 +16°C° 0 mm 3 mps 706 mmHg 47%
    12:00 +17°C° 0 mm 4 mps 706 mmHg 50%
    13:00 +17°C° 0 mm 4 mps 706 mmHg 52%
    14:00 +16°C° 0 mm 5 mps 706 mmHg 54%
    15:00 +15°C° 0.1 mm 5 mps 706 mmHg 58%
    16:00 +15°C° 0.1 mm 5 mps 706 mmHg 62%
    17:00 +14°C° 0.1 mm 5 mps 706 mmHg 65%
    18:00 +12°C° 0 mm 4 mps 706 mmHg 73%
    19:00 +11°C° 0 mm 3 mps 706 mmHg 80%
    20:00 +9°C° 0 mm 2 mps 706 mmHg 88%
    21:00 +9°C° 0 mm 2 mps 706 mmHg 88%
    22:00 +8°C° 0 mm 2 mps 707 mmHg 89%
    23:00 +8°C° 0 mm 2 mps 707 mmHg 89%

    Tomorrow, 27 March, Wednesday

    Time Temperature Precipitation Wind Pressure Humidity
    00:00 +8°C° 0 mm 2 mps 707 mmHg 89%
    01:00 +8°C° 0 mm 2 mps 707 mmHg 89%
    02:00 +8°C° 0 mm 2 mps 708 mmHg 89%
    03:00 +8°C° 0 mm 2 mps 708 mmHg 89%
    04:00 +8°C° 0 mm 2 mps 708 mmHg 89%
    05:00 +8°C° 0 mm 2 mps 708 mmHg 89%
    06:00 +9°C° 0 mm 2 mps 708 mmHg 86%
    07:00 +10°C° 0 mm 2 mps 708 mmHg 83%
    08:00 +12°C° 0 mm 2 mps 709 mmHg 80%
    09:00 +13°C° 0 mm 2 mps 710 mmHg 73%
    10:00 +15°C° 0 mm 2 mps 710 mmHg 66%
    11:00 +16°C° 0 mm 2 mps 711 mmHg 59%
    12:00 +16°C° 0 mm 2 mps 711 mmHg 60%
    13:00 +16°C° 0 mm 2 mps 711 mmHg 61%
    14:00 +17°C° 0 mm 2 mps 711 mmHg 62%
    15:00 +16°C° 0 mm 3 mps 711 mmHg 65%
    16:00 +14°C° 0 mm 3 mps 710 mmHg 69%
    17:00 +13°C° 0 mm 3 mps 710 mmHg 73%
    18:00 +14°C° 0 mm 2 mps 710 mmHg 77%
    19:00 +13°C° 0 mm 1 mps 710 mmHg 81%
    20:00 +11°C° 0 mm 0 mps 710 mmHg 85%
    21:00 +11°C° 0.2 mm 0 mps 710 mmHg 85%
    22:00 +11°C° 0.2 mm 0 mps 710 mmHg 85%
    23:00 +11°C° 0.2 mm 0 mps 710 mmHg 84%

    Day after tomorrow, 28 March, Thursday

    Time Temperature Precipitation Wind Pressure Humidity
    00:00 +12°C° 0.6 mm 1 mps 710 mmHg 85%
    01:00 +11°C° 0.6 mm 1 mps 710 mmHg 86%
    02:00 +11°C° 0.6 mm 1 mps 709 mmHg 87%
    03:00 +11°C° 0.9 mm 1 mps 709 mmHg 86%
    04:00 +10°C° 0.9 mm 1 mps 709 mmHg 85%
    05:00 +10°C° 0.9 mm 1 mps 708 mmHg 83%
    06:00 +10°C° 1.1 mm 1 mps 708 mmHg 84%
    07:00 +10°C° 1.1 mm 1 mps 708 mmHg 84%
    08:00 +10°C° 1.1 mm 1 mps 708 mmHg 84%
    09:00 +9°C° 0.5 mm 2 mps 708 mmHg 83%
    10:00 +10°C° 0.5 mm 2 mps 708 mmHg 82%
    11:00 +11°C° 0.5 mm 3 mps 708 mmHg 80%
    12:00 +11°C° 0.2 mm 3 mps 707 mmHg 78%
    13:00 +12°C° 0.2 mm 4 mps 707 mmHg 76%
    14:00 +13°C° 0.2 mm 4 mps 706 mmHg 73%
    15:00 +12°C° 0.1 mm 4 mps 706 mmHg 76%
    16:00 +12°C° 0.1 mm 5 mps 705 mmHg 79%
    17:00 +12°C° 0.1 mm 5 mps 704 mmHg 82%
    18:00 +10°C° 0.1 mm 5 mps 704 mmHg 85%
    19:00 +11°C° 0.1 mm 4 mps 704 mmHg 87%
    20:00 +10°C° 0.1 mm 4 mps 704 mmHg 89%
    21:00 +10°C° 0.2 mm 4 mps 704 mmHg 90%
    22:00 +10°C° 0.2 mm 4 mps 704 mmHg 90%
    23:00 +10°C° 0.2 mm 4 mps 704 mmHg 90%

    29 March, Friday

    Time Temperature Precipitation Wind Pressure Humidity
    00:00 +10°C° 1.7 mm 4 mps 704 mmHg 91%
    01:00 +10°C° 1.7 mm 4 mps 703 mmHg 92%
    02:00 +10°C° 1.7 mm 4 mps 703 mmHg 93%
    03:00 +8°C° 4.3 mm 6 mps 703 mmHg 93%
    04:00 +6°C° 4.3 mm 7 mps 703 mmHg 94%
    05:00 +5°C° 4.3 mm 9 mps 702 mmHg 94%
    06:00 +5°C° 0.7 mm 9 mps 703 mmHg 91%
    07:00 +5°C° 0.7 mm 10 mps 703 mmHg 88%
    08:00 +4°C° 0.7 mm 11 mps 703 mmHg 85%
    09:00 +4°C° 0.1 mm 11 mps 703 mmHg 83%
    10:00 +4°C° 0.1 mm 11 mps 704 mmHg 81%
    11:00 +4°C° 0.1 mm 11 mps 704 mmHg 79%
    12:00 +4°C° 0.1 mm 11 mps 704 mmHg 77%
    13:00 +4°C° 0.1 mm 12 mps 704 mmHg 75%
    14:00 +4°C° 0.1 mm 12 mps 704 mmHg 73%
    15:00 +4°C° 0.1 mm 12 mps 704 mmHg 73%
    16:00 +4°C° 0.1 mm 12 mps 704 mmHg 73%
    17:00 +4°C° 0.1 mm 12 mps 704 mmHg 73%
    18:00 +4°C° 0.1 mm 12 mps 704 mmHg 73%
    19:00 +4°C° 0.1 mm 12 mps 704 mmHg 74%
    20:00 +4°C° 0.1 mm 11 mps 704 mmHg 74%
    21:00 +4°C° 0.1 mm 11 mps 704 mmHg 75%
    22:00 +5°C° 0.1 mm 10 mps 704 mmHg 76%
    23:00 +5°C° 0.1 mm 10 mps 704 mmHg 77%

    30 March, Saturday

    Time Temperature Precipitation Wind Pressure Humidity
    00:00 +5°C° 0.1 mm 10 mps 704 mmHg 78%
    01:00 +3°C° 0.1 mm 10 mps 703 mmHg 79%
    02:00 +3°C° 0.1 mm 11 mps 703 mmHg 80%
    03:00 +3°C° 0.1 mm 11 mps 703 mmHg 80%
    04:00 +3°C° 0.1 mm 11 mps 703 mmHg 80%
    05:00 +3°C° 0.1 mm 11 mps 703 mmHg 81%
    06:00 +3°C° 0.1 mm 11 mps 703 mmHg 79%
    07:00 +3°C° 0.1 mm 12 mps 703 mmHg 78%
    08:00 +3°C° 0.1 mm 12 mps 703 mmHg 76%
    09:00 +3°C° 0.1 mm 12 mps 703 mmHg 74%
    10:00 +3°C° 0.1 mm 12 mps 703 mmHg 72%
    11:00 +4°C° 0.1 mm 12 mps 704 mmHg 70%
    12:00 +4°C° 0.1 mm 13 mps 703 mmHg 70%
    13:00 +4°C° 0.1 mm 13 mps 703 mmHg 70%
    14:00 +4°C° 0.1 mm 13 mps 703 mmHg 70%
    15:00 +4°C° 0.1 mm 13 mps 703 mmHg 71%
    16:00 +4°C° 0.1 mm 12 mps 703 mmHg 72%
    17:00 +3°C° 0.1 mm 12 mps 703 mmHg 73%
    18:00 +3°C° 0.1 mm 12 mps 703 mmHg 74%
    19:00 +3°C° 0.1 mm 11 mps 703 mmHg 75%
    20:00 +3°C° 0.1 mm 11 mps 703 mmHg 75%
    21:00 +3°C° 0.1 mm 10 mps 703 mmHg 76%
    22:00 +3°C° 0.1 mm 10 mps 703 mmHg 77%
    23:00 +3°C° 0.1 mm 10 mps 703 mmHg 78%

    31 March, Sunday

    Time Temperature Precipitation Wind Pressure Humidity
    00:00 +3°C° 0.2 mm 10 mps 703 mmHg 78%
    01:00 +3°C° 0.2 mm 10 mps 703 mmHg 79%
    02:00 +3°C° 0.2 mm 11 mps 702 mmHg 80%
    03:00 +3°C° 0.2 mm 10 mps 702 mmHg 81%
    04:00 +3°C° 0.2 mm 10 mps 702 mmHg 82%
    05:00 +3°C° 0.2 mm 10 mps 702 mmHg 82%
    06:00 +3°C° 0.2 mm 10 mps 702 mmHg 82%
    07:00 +5°C° 0.2 mm 10 mps 702 mmHg 81%
    08:00 +5°C° 0.2 mm 10 mps 702 mmHg 81%
    09:00 +5°C° 0.1 mm 10 mps 703 mmHg 79%
    10:00 +6°C° 0.1 mm 10 mps 703 mmHg 78%
    11:00 +6°C° 0.1 mm 10 mps 704 mmHg 76%
    12:00 +6°C° 0.1 mm 10 mps 704 mmHg 76%
    13:00 +6°C° 0.1 mm 10 mps 704 mmHg 76%
    14:00 +6°C° 0.1 mm 10 mps 704 mmHg 76%
    15:00 +6°C° 0.1 mm 10 mps 704 mmHg 75%
    16:00 +6°C° 0.1 mm 10 mps 704 mmHg 75%
    17:00 +6°C° 0.1 mm 10 mps 704 mmHg 74%
    18:00 +6°C° 0 mm 10 mps 704 mmHg 75%
    19:00 +5°C° 0 mm 9 mps 705 mmHg 76%
    20:00 +5°C° 0 mm 8 mps 705 mmHg 77%
    21:00 +5°C° 0 mm 8 mps 705 mmHg 77%
    22:00 +5°C° 0 mm 7 mps 705 mmHg 78%
    23:00 +5°C° 0 mm 7 mps 705 mmHg 78%
    Show more